This demonstration page uses our WeatherBlox Daily Observations layout. Learn more.

Left ArrowRight Arrow

39.92423, -83.80882

Hourly Observations for January 20, 2020

Temp ( °F °C ) Dew Point ( °F °C ) Humidity (%) Winds ( mph kmh ) Pressure ( in mb ) Visibility ( mi km ) Precip ( " mm )
12:56 am 00:56 Cloudy with Light Snow 15 -9.4 12 -11.1 88 88 WNW 8 13 30.46 1032 9 14.48406 0.001 0.001
1:23 am 01:23 Cloudy with Light Snow 16 -9 12 -11 86 86 WNW 9 15 30.5 1033 9 14.48406 0.001 0.001
1:56 am 01:56 Cloudy with Light Snow 15 -9.4 12 -11.1 88 88 WNW 8 13 30.47 1032 9 14.48406 0.001 0.001
2:56 am 02:56 Cloudy with Light Snow 15 -9.4 13 -10.6 91 91 WNW 7 11 30.49 1032 9 14.48406 0.001 0.001
3:56 am 03:56 Cloudy with Light Snow 16 -8.9 13 -10.6 88 88 WNW 7 11 30.48 1032 8 12.87472 0.001 0.001
4:56 am 04:56 Cloudy with Light Snow 16 -8.9 14 -10 92 92 WNW 8 13 30.5 1033 8 12.87472 0.001 0.001
5:56 am 05:56 Cloudy with Light Snow 15 -9.4 13 -10.6 91 91 NW 8 13 30.51 1033 9 14.48406 0.001 0.001
6:56 am 06:56 Cloudy 15 -9.4 13 -10.6 91 91 NW 8 13 30.54 1034 9 14.48406 0.001 0.001
7:19 am 07:19 Partly Cloudy 14 -10 12 -11 92 92 NW 6 9 30.58 1036 10 16.0934 0 0
7:39 am 07:39 Partly Cloudy with Isolated Snow Showers 12 -11 10 -12 92 92 NW 5 7 30.6 1036 5 8.0467 0.001 0.001
7:56 am 07:56 Mostly Sunny 13 -10.6 11 -11.7 92 92 NW 6 9 30.56 1035 10 16.0934 0.001 0.001
8:56 am 08:56 Mostly Sunny 15 -9.4 12 -11.1 88 88 NW 7 11 30.58 1036 10 16.0934 0 0
9:56 am 09:56 Mostly Sunny 16 -8.9 13 -10.6 88 88 WNW 5 7 30.6 1036 10 16.0934 0 0
10:56 am 10:56 Sunny 19 -7.2 14 -10 81 81 WNW 6 9 30.61 1037 10 16.0934 0 0
11:56 am 11:56 Sunny 22 -5.6 16 -8.9 78 78 NNW 7 11 30.6 1036 10 16.0934 0 0
12:56 pm 12:56 Mostly Sunny 24 -4.4 17 -8.3 75 75 VRB 6 9 30.58 1036 10 16.0934 0 0
1:24 pm 13:24 Mostly Cloudy 25 -4 18 -8 74 74 NW 8 13 30.58 1036 10 16.0934 0 0
1:56 pm 13:56 Mostly Cloudy 25 -3.9 17 -8.3 72 72 WNW 6 9 30.57 1035 10 16.0934 0 0
2:56 pm 14:56 Cloudy 26 -3.3 17 -8.3 69 69 WNW 9 15 30.56 1035 10 16.0934 0 0
3:56 pm 15:56 Cloudy with Light Snow 25 -3.9 17 -8.3 72 72 N 8 13 30.56 1035 9 14.48406 0.001 0.001
4:52 pm 16:52 Partly Cloudy 25 -4 16 -9 69 69 N 8 13 30.57 1035 10 16.0934 0.001 0.001
4:56 pm 16:56 Partly Cloudy 24 -4.4 16 -8.9 71 71 N 10 17 30.56 1035 10 16.0934 0.001 0.001
5:16 pm 17:16 Mostly Cloudy 23 -5 16 -9 74 74 N 9 15 30.59 1036 10 16.0934 0 0
5:56 pm 17:56 Clear 20 -6.7 15 -9.4 81 81 NNW 6 9 30.58 1035 10 16.0934 0 0
6:56 pm 18:56 Clear 20 -6.7 16 -8.9 85 85 NNW 6 9 30.59 1036 10 16.0934 0 0
7:56 pm 19:56 Clear 19 -7.2 15 -9.4 84 84 NNW 5 7 30.6 1036 10 16.0934 0 0
8:56 pm 20:56 Clear 18 -7.8 15 -9.4 88 88 NNW 3 6 30.6 1036 10 16.0934 0 0
9:56 pm 21:56 Mostly Clear 18 -7.8 14 -10 84 84 NNW 5 7 30.6 1036 10 16.0934 0 0
10:56 pm 22:56 Clear 18 -7.8 14 -10 84 84 N 3 6 30.61 1037 10 16.0934 0 0
11:56 pm 23:56 Clear 17 -8.3 14 -10 88 88 N 5 7 30.61 1037 10 16.0934 0 0

Powered by AerisWeather